Jaffrey, NH

9:34 PM EDT on August 19, 2017 (GMT -0400)
Jaffrey Airport-Silver Ranch

Weather History for KAFN - December, 2013

Change the Weather History Date:

Saturday, December 7, 2013

  Actual Average Record
Temperature  
Mean Temperature 26 °F -  
Max Temperature 32 °F 36 °F 66 °F (1998)
Min Temperature 19 °F 20 °F 5 °F (2002)
Degree Days  
Heating Degree Days 40    
Moisture  
Dew Point 23 °F    
Average Humidity 76    
Maximum Humidity 93    
Minimum Humidity 50    
Precipitation  
Precipitation 0.02 in - - ()
Sea Level Pressure  
Sea Level Pressure 30.21 in    
Wind  
Wind Speed 2 mph (NW)    
Max Wind Speed 9 mph    
Max Gust Speed 17 mph    
Visibility 7 miles    
Events Snow    
Averages and records for this station are not official NWS values.
T = Trace of Precipitation, MM = Missing Value Source: NWS Daily Summary

Daily Weather History Graph

Daily Weather History Graph

Search for Another Location

Airport or City:

Trip Planner

Search our weather history database for the weather conditions in past years. The results will help you decide how hot, cold, wet, or windy it might be!

Date:

Astronomy

Dec. 07, 2013 Rise Set
Actual Time 7:05 AM EST 4:13 PM EST
Civil Twilight 6:33 AM EST 4:45 PM EST
Nautical Twilight 5:57 AM EST 5:21 PM EST
Astronomical Twilight 5:23 AM EST 5:55 PM EST
Moon 10:43 AM EST (12/7) 9:57 PM EST (12/7)
Length of Visible Light 10h 12m
Length of Day
9h 08m
Waxing Crescent, 29% of the Moon is Illuminated
Dec 7
Waxing Crescent
Dec 9
First Quarter
Dec 17
Full
Dec 25
Last Quarter
Jan 1
New

Hourly Weather History & Observations

Time (EST) Temp. Windchill Dew Point Humidity Pressure Visibility Wind Dir Wind Speed Gust Speed Precip Events Conditions
12:11 AM 32.0 °F - 30.0 °F 92% 30.08 in 0.8 mi Calm Calm - 0.03 in Snow Light Snow
12:24 AM 32.0 °F - 30.0 °F 92% 30.08 in 1.0 mi Calm Calm - 0.04 in Snow Light Snow
12:48 AM 32.0 °F - 30.2 °F 93% 30.07 in 1.5 mi Calm Calm - 0.06 in Snow Light Snow
12:49 AM 32.0 °F - 30.0 °F 92% 30.12 in 1.5 mi Calm Calm - 0.06 in Snow Light Snow
1:00 AM 32.0 °F - 28.9 °F 88% 30.06 in 2.5 mi Calm Calm - 0.00 in Snow Light Snow
1:13 AM 32.0 °F - 30.0 °F 92% 30.07 in 2.5 mi Calm Calm - 0.01 in Snow Light Snow
1:15 AM 32.0 °F - 30.0 °F 92% 30.07 in 3.0 mi Calm Calm - 0.01 in Snow Light Snow
1:33 AM 32.0 °F - 28.9 °F 88% 30.04 in 5.0 mi Calm Calm - 0.01 in Snow Light Snow
1:52 AM 32.0 °F - 28.9 °F 88% 30.11 in 10.0 mi Calm Calm - 0.01 in   Overcast
2:52 AM 32.0 °F - 28.0 °F 85% 30.12 in 3.0 mi Calm Calm - 0.00 in Snow Light Snow
3:44 AM 30.9 °F - 28.9 °F 92% 30.08 in 2.0 mi Calm Calm - 0.00 in Snow Light Snow
3:52 AM 30.9 °F - 28.9 °F 92% 30.13 in 2.5 mi Calm Calm - 0.01 in Snow Light Snow
4:01 AM 30.9 °F - 28.0 °F 89% 30.09 in 4.0 mi Calm Calm - 0.00 in Snow Light Snow
4:52 AM 30.9 °F 25.2 °F 28.0 °F 89% 30.15 in 10.0 mi NW 5.8 mph - 0.00 in   Overcast
5:52 AM 30.9 °F - 25.0 °F 79% 30.17 in 10.0 mi Calm Calm - N/A   Overcast
6:52 AM 30.0 °F 25.2 °F 24.1 °F 79% 30.19 in 10.0 mi Variable 4.6 mph - N/A   Overcast
7:52 AM 30.0 °F - 26.1 °F 85% 30.21 in 10.0 mi Calm Calm - N/A   Overcast
8:52 AM 32.0 °F 28.7 °F 24.1 °F 73% 30.22 in 10.0 mi Variable 3.5 mph - N/A   Overcast
9:52 AM 32.0 °F 26.4 °F 24.1 °F 73% 30.25 in 10.0 mi Variable 5.8 mph - N/A   Mostly Cloudy
10:52 AM 32.0 °F 25.6 °F 19.9 °F 61% 30.26 in 10.0 mi NW 6.9 mph - N/A   Overcast
11:52 AM 32.0 °F 27.5 °F 23.0 °F 69% 30.25 in 10.0 mi NNW 4.6 mph - N/A   Overcast
12:52 PM 32.0 °F 27.5 °F 21.0 °F 64% 30.25 in 10.0 mi Variable 4.6 mph - N/A   Overcast
1:52 PM 30.9 °F 22.8 °F 19.0 °F 61% 30.26 in 10.0 mi NW 9.2 mph 17.3 mph N/A   Mostly Cloudy
2:52 PM 32.0 °F 24.8 °F 15.1 °F 50% 30.27 in 10.0 mi WNW 8.1 mph - N/A   Clear
3:52 PM 30.0 °F 23.2 °F 18.0 °F 61% 30.30 in 10.0 mi Variable 6.9 mph - N/A   Scattered Clouds
4:52 PM 27.0 °F - 18.0 °F 69% 30.33 in 10.0 mi Calm Calm - N/A   Clear
5:52 PM 27.0 °F 21.6 °F 15.1 °F 61% 30.34 in 10.0 mi Variable 4.6 mph - N/A   Clear
6:52 PM 26.1 °F 20.5 °F 15.1 °F 63% 30.37 in 10.0 mi NW 4.6 mph - N/A   Clear
7:52 PM 27.0 °F 19.5 °F 12.9 °F 56% 30.39 in 10.0 mi Variable 6.9 mph - N/A   Clear
8:52 PM 24.1 °F - 14.0 °F 65% 30.41 in 10.0 mi Calm Calm - N/A   Clear
9:52 PM 26.1 °F 19.4 °F 10.9 °F 53% 30.43 in 10.0 mi Variable 5.8 mph - N/A   Clear
10:52 PM 19.9 °F - 14.0 °F 78% 30.45 in 10.0 mi Calm Calm - N/A   Clear
11:52 PM 26.1 °F 20.5 °F 10.0 °F 51% 30.46 in 10.0 mi WNW 4.6 mph - N/A   Clear